Change the Weather History Date:

Saturday, October 29, 2011

  Actual Average Record
Temperature  
Mean Temperature 38 °F -  
Max Temperature 53 °F 48 °F 73 °F (2004)
Min Temperature 24 °F 32 °F 18 °F (1972)
Degree Days  
Heating Degree Days 26    
Moisture  
Dew Point 18 °F    
Average Humidity 44    
Maximum Humidity 69    
Minimum Humidity 26    
Precipitation  
Precipitation 0.00 in - - ()
Sea Level Pressure  
Sea Level Pressure 29.99 in    
Wind  
Wind Speed 9 mph (South)    
Max Wind Speed 18 mph    
Max Gust Speed 25 mph    
Visibility 10 miles    
Events      
Averages and records for this station are not official NWS values.
T = Trace of Precipitation, MM = Missing Value Source: NWS Daily Summary

Daily Weather History Graph

Daily Weather History Graph

Search for Another Location

Airport or City:

Trip Planner

Search our weather history database for the weather conditions in past years. The results will help you decide how hot, cold, wet, or windy it might be!

Date:

Astronomy

Oct. 29, 2011 Rise Set
Actual Time 7:53 AM CDT 6:17 PM CDT
Civil Twilight 7:24 AM CDT 6:47 PM CDT
Nautical Twilight 6:50 AM CDT 7:20 PM CDT
Astronomical Twilight 6:17 AM CDT 7:54 PM CDT
Moon 11:23 AM CDT (10/29) 8:36 PM CDT (10/29)
Length of Visible Light 11h 22m
Length of Day
10h 23m
Waxing Crescent, 12% of the Moon is Illuminated
Oct 29
Waxing Crescent
Nov 2
First Quarter
Nov 10
Full
Nov 18
Last Quarter
Nov 25
New

Hourly Weather History & Observations

Time (CDT) Temp. Windchill Dew Point Humidity Pressure Visibility Wind Dir Wind Speed Gust Speed Precip Events Conditions
12:15 AM 30.2 °F 21.9 °F 14.0 °F 51% 30.07 in 10.0 mi West 9.2 mph - N/A   Clear
12:35 AM 28.4 °F 21.2 °F 14.0 °F 55% 30.09 in 10.0 mi West 6.9 mph - N/A   Clear
12:55 AM 28.4 °F 23.3 °F 15.8 °F 59% 30.09 in 10.0 mi WNW 4.6 mph - N/A   Clear
1:15 AM 28.4 °F 22.2 °F 15.8 °F 59% 30.09 in 10.0 mi WNW 5.8 mph - N/A   Clear
1:35 AM 28.4 °F 23.3 °F 14.0 °F 55% 30.09 in 10.0 mi West 4.6 mph - N/A   Clear
1:55 AM 26.6 °F 18.2 °F 14.0 °F 59% 30.09 in 10.0 mi West 8.1 mph - N/A   Clear
2:15 AM 26.6 °F 19.1 °F 12.2 °F 55% 30.09 in 10.0 mi WSW 6.9 mph - N/A   Clear
2:35 AM 26.6 °F 20.0 °F 14.0 °F 59% 30.06 in 10.0 mi WSW 5.8 mph - N/A   Clear
3:15 AM 28.4 °F 24.6 °F 15.8 °F 59% 30.08 in 10.0 mi WSW 3.5 mph - N/A   Clear
3:35 AM 28.4 °F 24.6 °F 15.8 °F 59% 30.08 in 10.0 mi WSW 3.5 mph - N/A   Clear
3:55 AM 26.6 °F 19.1 °F 14.0 °F 59% 30.07 in 10.0 mi WSW 6.9 mph - N/A   Clear
4:15 AM 24.8 °F 19.1 °F 15.8 °F 69% 30.07 in 10.0 mi SW 4.6 mph - N/A   Clear
4:35 AM 24.8 °F 16.1 °F 15.8 °F 69% 30.07 in 10.0 mi SW 8.1 mph - N/A   Clear
5:15 AM 26.6 °F 17.5 °F 15.8 °F 64% 30.05 in 10.0 mi SW 9.2 mph - N/A   Clear
5:35 AM 26.6 °F 18.2 °F 15.8 °F 64% 30.05 in 10.0 mi WSW 8.1 mph - N/A   Clear
5:55 AM 26.6 °F 19.1 °F 14.0 °F 59% 30.04 in 10.0 mi SW 6.9 mph - N/A   Clear
6:15 AM 26.6 °F 20.0 °F 14.0 °F 59% 30.04 in 10.0 mi WSW 5.8 mph - N/A   Clear
6:35 AM 26.6 °F 21.2 °F 14.0 °F 59% 30.04 in 10.0 mi WSW 4.6 mph - N/A   Clear
6:55 AM 24.8 °F 19.1 °F 12.2 °F 59% 30.04 in 10.0 mi SW 4.6 mph - N/A   Clear
7:15 AM 26.6 °F 22.6 °F 15.8 °F 64% 30.04 in 10.0 mi SW 3.5 mph - N/A   Clear
7:35 AM 26.6 °F 22.6 °F 15.8 °F 64% 30.03 in 10.0 mi SW 3.5 mph - N/A   Clear
7:55 AM 24.8 °F 20.5 °F 15.8 °F 69% 30.03 in 10.0 mi SW 3.5 mph - N/A   Clear
8:15 AM 26.6 °F 22.6 °F 15.8 °F 64% 30.03 in 10.0 mi SW 3.5 mph - N/A   Clear
8:35 AM 26.6 °F 21.2 °F 17.6 °F 69% 30.03 in 10.0 mi SSW 4.6 mph - N/A   Clear
8:55 AM 26.6 °F 21.2 °F 17.6 °F 69% 30.03 in 10.0 mi SSW 4.6 mph - N/A   Clear
9:15 AM 32.0 °F 28.7 °F 19.4 °F 60% 30.03 in 10.0 mi SSW 3.5 mph - N/A   Clear
9:35 AM 37.4 °F 32.1 °F 21.2 °F 52% 30.05 in 10.0 mi South 6.9 mph - N/A   Clear
10:15 AM 42.8 °F 36.6 °F 21.2 °F 42% 30.02 in 10.0 mi South 11.5 mph - N/A   Clear
10:35 AM 44.6 °F 39.2 °F 21.2 °F 39% 30.02 in 10.0 mi South 10.4 mph - N/A   Clear
10:55 AM 46.4 °F 40.1 °F 19.4 °F 34% 30.02 in 10.0 mi South 15.0 mph - N/A   Clear
11:15 AM 46.4 °F 40.1 °F 19.4 °F 34% 30.01 in 10.0 mi South 15.0 mph - N/A   Clear
11:35 AM 48.2 °F - 17.6 °F 30% 30.00 in 10.0 mi SSE 16.1 mph - N/A   Clear
12:15 PM 48.2 °F - 15.8 °F 27% 30.02 in 10.0 mi South 16.1 mph - N/A   Clear
12:35 PM 50.0 °F - 15.8 °F 26% 30.02 in 10.0 mi SSE 15.0 mph - N/A   Clear
12:55 PM 51.8 °F - 17.6 °F 26% 30.00 in 10.0 mi SSE 17.3 mph 23.0 mph N/A   Clear
1:15 PM 51.8 °F - 17.6 °F 26% 29.99 in 10.0 mi SSE 15.0 mph 24.2 mph N/A   Clear
1:35 PM 51.8 °F - 17.6 °F 26% 29.97 in 10.0 mi SSE 13.8 mph 23.0 mph N/A   Clear
1:55 PM 51.8 °F - 17.6 °F 26% 29.96 in 10.0 mi South 16.1 mph 21.9 mph N/A   Clear
2:15 PM 51.8 °F - 17.6 °F 26% 29.94 in 10.0 mi SSE 16.1 mph 24.2 mph N/A   Clear
2:35 PM 51.8 °F - 17.6 °F 26% 29.93 in 10.0 mi SSE 18.4 mph 25.3 mph N/A   Clear
2:55 PM 51.8 °F - 17.6 °F 26% 29.93 in 10.0 mi SSE 16.1 mph - N/A   Clear
3:15 PM 51.8 °F - 17.6 °F 26% 29.91 in 10.0 mi SSE 16.1 mph 25.3 mph N/A   Clear
3:35 PM 53.6 °F - 19.4 °F 26% 29.90 in 10.0 mi SSE 17.3 mph 24.2 mph N/A   Clear
3:55 PM 53.6 °F - 19.4 °F 26% 29.90 in 10.0 mi SSE 16.1 mph 23.0 mph N/A   Clear
4:15 PM 53.6 °F - 19.4 °F 26% 29.89 in 10.0 mi SE 17.3 mph - N/A   Clear
4:35 PM 53.6 °F - 19.4 °F 26% 29.89 in 10.0 mi SSE 18.4 mph 24.2 mph N/A   Clear
4:55 PM 53.6 °F - 21.2 °F 28% 29.88 in 10.0 mi SSE 16.1 mph 24.2 mph N/A   Clear
5:15 PM 53.6 °F - 21.2 °F 28% 29.88 in 10.0 mi SE 15.0 mph - N/A   Clear
5:35 PM 53.6 °F - 21.2 °F 28% 29.87 in 10.0 mi SE 15.0 mph 23.0 mph N/A   Mostly Cloudy
5:55 PM 51.8 °F - 21.2 °F 30% 29.88 in 10.0 mi SE 12.7 mph - N/A   Overcast
6:15 PM 51.8 °F - 21.2 °F 30% 29.88 in 10.0 mi SE 11.5 mph - N/A   Overcast
6:35 PM 50.0 °F - 21.2 °F 32% 29.89 in 10.0 mi SE 9.2 mph - N/A   Overcast
6:55 PM 48.2 °F - 21.2 °F 34% 29.89 in 10.0 mi SE 10.4 mph - N/A   Overcast
7:15 PM 48.2 °F - 21.2 °F 34% 29.89 in 10.0 mi SE 9.2 mph - N/A   Mostly Cloudy
7:35 PM 48.2 °F - 21.2 °F 34% 29.89 in 10.0 mi SE 8.1 mph - N/A   Overcast
7:55 PM 48.2 °F - 21.2 °F 34% 29.89 in 10.0 mi SE 11.5 mph - N/A   Overcast
8:15 PM 46.4 °F 41.1 °F 21.2 °F 37% 29.89 in 10.0 mi SE 11.5 mph - N/A   Mostly Cloudy
8:35 PM 46.4 °F 41.5 °F 21.2 °F 37% 29.89 in 10.0 mi SE 10.4 mph - N/A   Mostly Cloudy
8:55 PM 46.4 °F 42.9 °F 21.2 °F 37% 29.89 in 10.0 mi SE 6.9 mph - N/A   Mostly Cloudy
9:15 PM 46.4 °F 41.9 °F 21.2 °F 37% 29.88 in 10.0 mi SE 9.2 mph - N/A   Mostly Cloudy
9:35 PM 46.4 °F 41.1 °F 21.2 °F 37% 29.87 in 10.0 mi SSE 11.5 mph - N/A   Clear
9:55 PM 46.4 °F 41.5 °F 21.2 °F 37% 29.87 in 10.0 mi SSE 10.4 mph - N/A   Clear
10:15 PM 46.4 °F 40.4 °F 21.2 °F 37% 29.86 in 10.0 mi SSE 13.8 mph - N/A   Scattered Clouds
10:35 PM 46.4 °F 41.1 °F 21.2 °F 37% 29.85 in 10.0 mi SSE 11.5 mph - N/A   Overcast
10:55 PM 46.4 °F 41.1 °F 21.2 °F 37% 29.84 in 10.0 mi SSE 11.5 mph 17.3 mph N/A   Mostly Cloudy
11:15 PM 46.4 °F 41.1 °F 21.2 °F 37% 29.84 in 10.0 mi SSE 11.5 mph - N/A   Scattered Clouds
11:35 PM 46.4 °F 40.7 °F 21.2 °F 37% 29.83 in 10.0 mi South 12.7 mph - N/A   Clear
11:55 PM 44.6 °F 39.2 °F 21.2 °F 39% 29.82 in 10.0 mi SSE 10.4 mph - N/A   Clear